NOAA 16 DEB, 41356

Orbit data source: Space-Track

NOAA 16 DEB, 41356 is space debris in SSO originally from a launch on Thu, 21 Sep 2000 UTC launched from the Air Force Western Test Range (AFWTR). Debris objects in space refer to the collection of defunct objects orbiting the Earth. Examples of debris include non-operational satellites, rocket bodies, and fragments generated from explosions, collisions, or faulty payload assembly.

Loading next visibility...
Identifier
41356, 2000-055HZ
Orbit
SSO
Country
Flag of USUS
Related business
Manufacturer
Unknown
Mission
Spacecraft
Bus & Motor
Unknown
Mass
Unknown
Launch date (UTC)
2000-09-21 (26 years ago)
Launch vehicle
Unknown
Launch site
Air Force Western Test Range (AFWTR)
Object type
Payload
Rocket body
Debris
Shape & HBR
Unknown shape, 0.1 m
Radar Cross Section
Medium (>0.1 m² and <1 m²)

Expand to show TLE details & history
Last TLE update: 2 days ago

TLE from 2 days ago
0 NOAA 16 DEB
1 41356U 00055HZ  26171.41936740  .00002682  00000-0  11867-2 0  9993
2 41356  98.7449 227.1478 0040867 127.8355 232.6533 14.23571714537834
Epoch: 2026-06-20T10:03Z
TLE epoch observation values (Epoch: 2026-06-20T10:03:53.343Z)
Latitude
-0.00002°
Longitude
167.54128°
Altitude
834.125 km
Speed
7.427 km/s
True Right ascension
15h 08m 35s
True Declination
0° 00' 00"
Sunlit
Object was in full shadow at epoch
Visualization orbit readout
Latitude
Unknown
Longitude
Unknown
Altitude
Unknown
Speed
Unknown
Apparent Right ascension
Unknown
Apparent Declination
Unknown
Sunlit
N/A
Visualization observer readout
Local Sidereal Time
21:35:35
Azimuth
Unknown
Elevation
Unknown
Doppler factor
Unknown
Orbital elements
Apogee altitude
839.832 km
Perigee altitude
781.077 km
Semi-major axis
7,188.591 km
Eccentricity
0.00409
Inclination
98.7449°
RAAN
227.1478°
Arg. of periapsis
127.8355°
True anomaly
232.28216°
Mean anomaly
232.6533°
Eccentric anomaly
232.46762°
Mean motion
3.56105 °/min
Orbital period
101.09 mins
BSTAR
0.0011867
Loading maneuver chart data...
Computing Atmospheric mass density...
Loading historical data...
Loading historical data...
Loading historical data...
Loading historical data...
Loading historical data...
Loading historical data...
Loading historical data...

Documentation

Showing up to 5 results
|